Terug naar catalogus

STARLINK-4151

ActiefCommunicatieVLEO
NORAD 53034·PAYLOAD·🇺🇸 United States

Gelanceerd Jul 7, 2022 vanaf Cape Canaveral Space Force Station

Loading…

Volgende Passages (komende 24 uur)

TLE

VersSource: CelesTrak SupGP

Epoch: Sep 14, 2026, 22:10 UTC

1 53034C 22076BA  26257.92409722  .00000005  00000+0  17109-6 0  2574
2 53034  53.1579 293.7872 0001168  93.8859   6.2785 15.31671243    15

Volg STARLINK-4151 in realtime met AllMySat

Download on the App Store